Time,TemperatureF,DewpointF,PressureIn,WindDirection,WindDirectionDegrees,WindSpeedMPH,WindSpeedGustMPH,Humidity,HourlyPrecipIn,Conditions,Clouds,dailyrainin,SoftwareType,DateUTC
2013-01-12 00:03:00,39.9,39.0,29.48,SW,220,4.0,9.0,96,0.00,,,0.00,weatherlink.com 1.10,2013-01-12 06:03:00,
2013-01-12 00:19:00,39.5,39.0,29.48,WSW,252,1.0,7.0,96,0.00,,,0.00,weatherlink.com 1.10,2013-01-12 06:19:00,
2013-01-12 00:33:00,39.0,38.0,29.49,SW,223,2.0,7.0,95,0.00,,,0.00,weatherlink.com 1.10,2013-01-12 06:33:00,
2013-01-12 00:48:00,38.4,37.0,29.49,SSW,194,0.0,8.0,95,0.00,,,0.00,weatherlink.com 1.10,2013-01-12 06:48:00,
2013-01-12 01:03:00,38.0,37.0,29.51,SW,216,2.0,3.0,95,0.00,,,0.00,weatherlink.com 1.10,2013-01-12 07:03:00,
2013-01-12 01:19:00,37.6,36.0,29.52,SW,215,4.0,9.0,94,0.00,,,0.00,weatherlink.com 1.10,2013-01-12 07:19:00,
2013-01-12 01:34:00,36.9,35.0,29.53,SW,223,5.0,14.0,93,0.00,,,0.00,weatherlink.com 1.10,2013-01-12 07:34:00,
2013-01-12 01:49:00,36.2,34.0,29.54,SSW,210,8.0,17.0,93,0.00,,,0.00,weatherlink.com 1.10,2013-01-12 07:49:00,
2013-01-12 02:04:00,35.2,33.0,29.55,SW,229,12.0,15.0,91,0.00,,,0.00,weatherlink.com 1.10,2013-01-12 08:04:00,
2013-01-12 02:19:00,33.0,31.0,29.57,SW,221,8.0,12.0,91,0.00,,,0.00,weatherlink.com 1.10,2013-01-12 08:19:00,
2013-01-12 02:34:00,31.0,29.0,29.59,SW,232,5.0,15.0,90,0.00,,,0.00,weatherlink.com 1.10,2013-01-12 08:34:00,
2013-01-12 02:49:00,29.3,27.0,29.61,SW,233,5.0,10.0,90,0.00,,,0.00,weatherlink.com 1.10,2013-01-12 08:49:00,
2013-01-12 03:04:00,27.0,24.0,29.62,WSW,254,5.0,16.0,88,0.00,,,0.00,weatherlink.com 1.10,2013-01-12 09:04:00,
2013-01-12 03:23:00,25.7,22.0,29.64,SSW,205,2.0,16.0,87,0.00,,,0.00,weatherlink.com 1.10,2013-01-12 09:23:00,
2013-01-12 03:34:00,25.1,22.0,29.65,West,264,2.0,12.0,86,0.00,,,0.00,weatherlink.com 1.10,2013-01-12 09:34:00,
2013-01-12 03:49:00,24.2,20.0,29.66,West,264,5.0,16.0,85,0.00,,,0.00,weatherlink.com 1.10,2013-01-12 09:49:00,
2013-01-12 04:04:00,23.8,20.0,29.68,West,263,11.0,12.0,84,0.00,,,0.00,weatherlink.com 1.10,2013-01-12 10:04:00,
2013-01-12 04:19:00,23.1,19.0,29.68,West,264,5.0,12.0,84,0.00,,,0.00,weatherlink.com 1.10,2013-01-12 10:19:00,
2013-01-12 04:34:00,22.7,18.0,29.70,SSW,202,7.0,19.0,83,0.00,,,0.00,weatherlink.com 1.10,2013-01-12 10:34:00,
2013-01-12 04:49:00,21.7,16.0,29.71,WSW,246,3.0,17.0,79,0.00,,,0.00,weatherlink.com 1.10,2013-01-12 10:49:00,
2013-01-12 05:08:00,20.8,15.0,29.73,WSW,250,6.0,17.0,78,0.00,,,0.00,weatherlink.com 1.10,2013-01-12 11:08:00,
2013-01-12 05:20:00,20.2,14.0,29.75,SW,236,3.0,16.0,78,0.00,,,0.00,weatherlink.com 1.10,2013-01-12 11:20:00,
2013-01-12 05:35:00,19.6,14.0,29.76,WSW,240,4.0,15.0,78,0.00,,,0.00,weatherlink.com 1.10,2013-01-12 11:35:00,
2013-01-12 05:50:00,19.2,13.0,29.77,WNW,288,3.0,20.0,77,0.00,,,0.00,weatherlink.com 1.10,2013-01-12 11:50:00,
2013-01-12 06:05:00,18.9,13.0,29.79,SSW,213,5.0,15.0,78,0.00,,,0.00,weatherlink.com 1.10,2013-01-12 12:05:00,
2013-01-12 06:20:00,18.8,14.0,29.81,SSW,211,4.0,11.0,80,0.00,,,0.00,weatherlink.com 1.10,2013-01-12 12:20:00,
2013-01-12 06:35:00,18.3,13.0,29.82,WSW,250,3.0,14.0,80,0.00,,,0.00,weatherlink.com 1.10,2013-01-12 12:35:00,
2013-01-12 06:50:00,17.8,13.0,29.84,SW,234,3.0,16.0,80,0.00,,,0.00,weatherlink.com 1.10,2013-01-12 12:50:00,
2013-01-12 07:05:00,17.4,11.0,29.86,West,263,5.0,21.0,75,0.00,,,0.00,weatherlink.com 1.10,2013-01-12 13:05:00,
2013-01-12 07:20:00,17.2,11.0,29.86,SSW,210,7.0,14.0,76,0.00,,,0.00,weatherlink.com 1.10,2013-01-12 13:20:00,
2013-01-12 07:35:00,17.0,10.0,29.88,WNW,297,0.0,15.0,75,0.00,,,0.00,weatherlink.com 1.10,2013-01-12 13:35:00,
2013-01-12 07:50:00,16.7,10.0,29.90,WSW,254,3.0,11.0,74,0.00,,,0.00,weatherlink.com 1.10,2013-01-12 13:50:00,
2013-01-12 08:05:00,16.3,10.0,29.90,WSW,246,3.0,12.0,75,0.00,,,0.00,weatherlink.com 1.10,2013-01-12 14:05:00,
2013-01-12 08:20:00,16.4,10.0,29.92,West,275,7.0,13.0,77,0.00,,,0.00,weatherlink.com 1.10,2013-01-12 14:20:00,
2013-01-12 08:35:00,16.1,10.0,29.92,WNW,283,2.0,12.0,78,0.00,,,0.00,weatherlink.com 1.10,2013-01-12 14:35:00,
2013-01-12 08:50:00,15.9,11.0,29.94,WSW,245,3.0,8.0,82,0.00,,,0.00,weatherlink.com 1.10,2013-01-12 14:50:00,
2013-01-12 09:05:00,15.6,10.0,29.95,SW,225,5.0,15.0,79,0.00,,,0.00,weatherlink.com 1.10,2013-01-12 15:05:00,
2013-01-12 09:20:00,15.2,9.0,29.95,WSW,245,8.0,12.0,75,0.00,,,0.00,weatherlink.com 1.10,2013-01-12 15:20:00,
2013-01-12 09:35:00,15.0,8.0,29.97,SW,234,2.0,10.0,73,0.00,,,0.00,weatherlink.com 1.10,2013-01-12 15:35:00,
2013-01-12 09:50:00,14.3,7.0,29.98,WSW,243,4.0,13.0,74,0.00,,,0.00,weatherlink.com 1.10,2013-01-12 15:50:00,
2013-01-12 10:05:00,14.5,8.0,29.99,WSW,248,4.0,12.0,74,0.00,,,0.00,weatherlink.com 1.10,2013-01-12 16:05:00,
2013-01-12 10:21:00,14.1,7.0,30.00,SW,220,8.0,15.0,74,0.00,,,0.00,weatherlink.com 1.10,2013-01-12 16:21:00,
2013-01-12 10:36:00,14.3,7.0,30.00,WNW,302,4.0,14.0,72,0.00,,,0.00,weatherlink.com 1.10,2013-01-12 16:36:00,
2013-01-12 10:51:00,13.9,6.0,30.01,WSW,242,6.0,13.0,72,0.00,,,0.00,weatherlink.com 1.10,2013-01-12 16:51:00,
2013-01-12 11:08:00,13.5,6.0,30.03,SW,232,4.0,13.0,71,0.00,,,0.00,weatherlink.com 1.10,2013-01-12 17:08:00,
2013-01-12 11:21:00,13.6,6.0,30.03,WSW,250,3.0,10.0,72,0.00,,,0.00,weatherlink.com 1.10,2013-01-12 17:21:00,
2013-01-12 11:36:00,13.4,6.0,30.02,WSW,253,3.0,13.0,72,0.00,,,0.00,weatherlink.com 1.10,2013-01-12 17:36:00,
2013-01-12 11:51:00,13.9,6.0,30.02,WSW,248,10.0,12.0,72,0.00,,,0.00,weatherlink.com 1.10,2013-01-12 17:51:00,
2013-01-12 12:06:00,13.3,6.0,30.03,WNW,284,4.0,13.0,73,0.00,,,0.00,weatherlink.com 1.10,2013-01-12 18:06:00,
2013-01-12 12:21:00,13.9,6.0,30.04,WSW,248,8.0,15.0,72,0.00,,,0.00,weatherlink.com 1.10,2013-01-12 18:21:00,
2013-01-12 12:36:00,13.8,7.0,30.04,SW,234,6.0,13.0,73,0.00,,,0.00,weatherlink.com 1.10,2013-01-12 18:36:00,
2013-01-12 12:51:00,13.5,6.0,30.04,WSW,241,4.0,13.0,71,0.00,,,0.00,weatherlink.com 1.10,2013-01-12 18:51:00,
2013-01-12 13:06:00,13.2,5.0,30.05,West,275,11.0,11.0,70,0.00,,,0.00,weatherlink.com 1.10,2013-01-12 19:06:00,
2013-01-12 13:21:00,13.6,6.0,30.06,West,259,4.0,10.0,71,0.00,,,0.00,weatherlink.com 1.10,2013-01-12 19:21:00,
2013-01-12 13:36:00,13.1,5.0,30.07,SSW,211,2.0,11.0,69,0.00,,,0.00,weatherlink.com 1.10,2013-01-12 19:36:00,
2013-01-12 13:51:00,13.4,5.0,30.09,West,263,7.0,10.0,70,0.00,,,0.00,weatherlink.com 1.10,2013-01-12 19:51:00,
2013-01-12 14:06:00,13.2,5.0,30.09,SSW,206,7.0,11.0,71,0.00,,,0.00,weatherlink.com 1.10,2013-01-12 20:06:00,
2013-01-12 14:21:00,13.5,5.0,30.09,SSW,207,6.0,10.0,69,0.00,,,0.00,weatherlink.com 1.10,2013-01-12 20:21:00,
2013-01-12 14:36:00,13.1,4.0,30.10,West,268,10.0,14.0,68,0.00,,,0.00,weatherlink.com 1.10,2013-01-12 20:36:00,
2013-01-12 14:51:00,12.8,5.0,30.11,WSW,244,4.0,9.0,70,0.00,,,0.00,weatherlink.com 1.10,2013-01-12 20:51:00,
2013-01-12 15:06:00,12.9,5.0,30.10,WSW,252,5.0,10.0,70,0.00,,,0.00,weatherlink.com 1.10,2013-01-12 21:06:00,
2013-01-12 15:21:00,12.1,3.0,30.11,West,259,6.0,14.0,68,0.00,,,0.00,weatherlink.com 1.10,2013-01-12 21:21:00,
2013-01-12 15:36:00,12.0,4.0,30.11,West,268,1.0,10.0,70,0.00,,,0.00,weatherlink.com 1.10,2013-01-12 21:36:00,
2013-01-12 15:51:00,11.6,3.0,30.11,WNW,289,7.0,10.0,68,0.00,,,0.00,weatherlink.com 1.10,2013-01-12 21:51:00,
2013-01-12 16:06:00,11.0,3.0,30.10,West,267,2.0,11.0,69,0.00,,,0.00,weatherlink.com 1.10,2013-01-12 22:06:00,
2013-01-12 16:21:00,10.8,3.0,30.13,NW,322,4.0,10.0,70,0.00,,,0.00,weatherlink.com 1.10,2013-01-12 22:21:00,
2013-01-12 16:36:00,10.6,4.0,30.12,WSW,242,3.0,9.0,73,0.00,,,0.00,weatherlink.com 1.10,2013-01-12 22:36:00,
2013-01-12 16:51:00,10.5,4.0,30.14,West,264,5.0,8.0,76,0.00,,,0.00,weatherlink.com 1.10,2013-01-12 22:51:00,
2013-01-12 17:07:00,10.4,3.0,30.16,WNW,290,7.0,9.0,73,0.00,,,0.00,weatherlink.com 1.10,2013-01-12 23:07:00,
2013-01-12 17:22:00,10.4,3.0,30.17,WSW,256,3.0,8.0,72,0.00,,,0.00,weatherlink.com 1.10,2013-01-12 23:22:00,
2013-01-12 17:37:00,10.1,3.0,30.17,WSW,244,4.0,7.0,72,0.00,,,0.00,weatherlink.com 1.10,2013-01-12 23:37:00,
2013-01-12 17:52:00,9.8,3.0,30.16,West,272,4.0,9.0,73,0.00,,,0.00,weatherlink.com 1.10,2013-01-12 23:52:00,
2013-01-12 18:07:00,9.8,3.0,30.16,West,263,6.0,9.0,73,0.00,,,0.00,weatherlink.com 1.10,2013-01-13 00:07:00,
2013-01-12 18:22:00,9.3,3.0,30.16,West,273,2.0,11.0,74,0.00,,,0.00,weatherlink.com 1.10,2013-01-13 00:22:00,
2013-01-12 18:37:00,9.0,2.0,30.16,West,265,0.0,8.0,73,0.00,,,0.00,weatherlink.com 1.10,2013-01-13 00:37:00,
2013-01-12 18:52:00,9.0,2.0,30.17,WSW,253,1.0,6.0,74,0.00,,,0.00,weatherlink.com 1.10,2013-01-13 00:52:00,
2013-01-12 19:07:00,8.9,2.0,30.18,WSW,254,2.0,8.0,74,0.00,,,0.00,weatherlink.com 1.10,2013-01-13 01:07:00,
2013-01-12 19:22:00,8.7,2.0,30.18,West,280,4.0,11.0,74,0.00,,,0.00,weatherlink.com 1.10,2013-01-13 01:22:00,
2013-01-12 19:37:00,8.6,2.0,30.18,West,266,2.0,7.0,75,0.00,,,0.00,weatherlink.com 1.10,2013-01-13 01:37:00,
2013-01-12 19:52:00,8.5,2.0,30.19,WNW,298,6.0,9.0,74,0.00,,,0.00,weatherlink.com 1.10,2013-01-13 01:52:00,
2013-01-12 20:07:00,8.3,2.0,30.20,WNW,286,3.0,10.0,74,0.00,,,0.00,weatherlink.com 1.10,2013-01-13 02:07:00,
2013-01-12 20:22:00,8.2,2.0,30.19,West,279,2.0,7.0,75,0.00,,,0.00,weatherlink.com 1.10,2013-01-13 02:22:00,
2013-01-12 20:37:00,8.1,1.0,30.21,West,276,3.0,9.0,74,0.00,,,0.00,weatherlink.com 1.10,2013-01-13 02:37:00,
2013-01-12 20:53:00,8.1,2.0,30.22,West,271,2.0,3.0,75,0.00,,,0.00,weatherlink.com 1.10,2013-01-13 02:53:00,
2013-01-12 21:07:00,7.9,1.0,30.23,WNW,283,3.0,8.0,74,0.00,,,0.00,weatherlink.com 1.10,2013-01-13 03:07:00,
2013-01-12 21:23:00,7.3,0.0,30.21,West,279,2.0,8.0,73,0.00,,,0.00,weatherlink.com 1.10,2013-01-13 03:23:00,
2013-01-12 21:37:00,6.9,0.0,30.22,NW,304,2.0,8.0,73,0.00,,,0.00,weatherlink.com 1.10,2013-01-13 03:37:00,
2013-01-12 21:52:00,6.7,0.0,30.23,WNW,283,2.0,5.0,74,0.00,,,0.00,weatherlink.com 1.10,2013-01-13 03:52:00,
2013-01-12 22:07:00,6.4,0.0,30.21,WNW,294,3.0,8.0,74,0.00,,,0.00,weatherlink.com 1.10,2013-01-13 04:07:00,
2013-01-12 22:22:00,6.3,0.0,30.23,West,276,0.0,7.0,74,0.00,,,0.00,weatherlink.com 1.10,2013-01-13 04:22:00,
2013-01-12 22:37:00,6.2,0.0,30.23,WSW,256,1.0,6.0,75,0.00,,,0.00,weatherlink.com 1.10,2013-01-13 04:37:00,
2013-01-12 22:52:00,6.0,0.0,30.22,West,279,1.0,8.0,75,0.00,,,0.00,weatherlink.com 1.10,2013-01-13 04:52:00,
2013-01-12 23:07:00,6.0,0.0,30.22,NNW,339,0.0,6.0,76,0.00,,,0.00,weatherlink.com 1.10,2013-01-13 05:07:00,
2013-01-12 23:22:00,5.8,0.0,30.22,NW,315,1.0,7.0,76,0.00,,,0.00,weatherlink.com 1.10,2013-01-13 05:22:00,
2013-01-12 23:37:00,5.6,0.0,30.22,West,267,0.0,7.0,76,0.00,,,0.00,weatherlink.com 1.10,2013-01-13 05:37:00,
2013-01-12 23:53:00,5.4,0.0,30.22,West,280,1.0,3.0,77,0.00,,,0.00,weatherlink.com 1.10,2013-01-13 05:53:00,